Weather History for KPVB - January, 2013

Change the Weather History Date:

Thursday, January 10, 2013

  Actual Average (KDBQ) Record (KDBQ)
Temperature  
Mean Temperature 29 °F 19 °F  
Max Temperature 35 °F 26 °F 54 °F (1928)
Min Temperature 23 °F 11 °F -25 °F (1982)
Degree Days  
Heating Degree Days 36 46  
Month to date heating degree days 460  
Since 1 July heating degree days 3270  
Cooling Degree Days 0 0  
Month to date cooling degree days 0  
Year to date cooling degree days 0  
Moisture  
Dew Point 26 °F    
Average Humidity 84    
Maximum Humidity 100    
Minimum Humidity 69    
Precipitation  
Precipitation 0.12 in 0.04 in 0.29 in (1883)
Month to date precipitation 0.39  
Year to date precipitation 0.39  
Snow  
Snow 0.00 in 0.30 in - ()
Month to date snowfall 3.2  
Since 1 July snowfall 17.8  
Snow Depth -    
Sea Level Pressure  
Sea Level Pressure 30.19 in    
Wind  
Wind Speed 10 mph (ESE)    
Max Wind Speed 21 mph    
Max Gust Speed 29 mph    
Visibility 8 miles    
Events      
T = Trace of Precipitation, MM = Missing Value Source: NWS Daily Summary

Daily Weather History Graph

Daily Weather History Graph

Search for Another Location

Airport or City:

Trip Planner

Search our weather history database for the weather conditions in past years. The results will help you decide how hot, cold, wet, or windy it might be!

Date:

Astronomy

Jan. 10, 2013 Rise Set
Actual Time 7:31 AM CST 4:48 PM CST
Civil Twilight 6:59 AM CST 5:19 PM CST
Nautical Twilight 6:24 AM CST 5:54 PM CST
Astronomical Twilight 5:50 AM CST 6:28 PM CST
Moon 6:10 AM CST (1/10) 3:56 PM CST (1/10)
Length of Visible Light 10h 20m
Length of Day
9h 16m
Waning Crescent, 2% of the Moon is Illuminated
Jan 10
Waning Crescent
Jan 11
New
Jan 18
First Quarter
Jan 26
Full
Feb 3
Last Quarter

Hourly Weather History & Observations

Time (CST) Temp. Windchill Dew Point Humidity Pressure Visibility Wind Dir Wind Speed Gust Speed Precip Events Conditions
12:15 AM 26.6 °F 21.2 °F 21.2 °F 80% 30.46 in 10.0 mi SSE 4.6 mph - N/A   Clear
2:15 AM 26.6 °F 21.2 °F 23.0 °F 86% 30.45 in 10.0 mi SE 4.6 mph - N/A   Clear
2:35 AM 26.6 °F 21.2 °F 23.0 °F 86% 30.45 in 10.0 mi SE 4.6 mph - N/A   Clear
2:55 AM 26.6 °F 20.0 °F 23.0 °F 86% 30.44 in 10.0 mi SE 5.8 mph - N/A   Clear
3:15 AM 26.6 °F 18.2 °F 23.0 °F 86% 30.44 in 10.0 mi ESE 8.1 mph - N/A   Clear
3:35 AM 26.6 °F 19.1 °F 23.0 °F 86% 30.42 in 10.0 mi East 6.9 mph - N/A   Clear
3:55 AM 26.6 °F 17.5 °F 23.0 °F 86% 30.42 in 10.0 mi East 9.2 mph - N/A   Clear
4:15 AM 26.6 °F 16.8 °F 21.2 °F 80% 30.42 in 10.0 mi East 10.4 mph - N/A   Clear
4:35 AM 26.6 °F 18.2 °F 21.2 °F 80% 30.41 in 10.0 mi East 8.1 mph - N/A   Clear
4:55 AM 26.6 °F 18.2 °F 21.2 °F 80% 30.40 in 10.0 mi East 8.1 mph - N/A   Clear
5:15 AM 24.8 °F 20.5 °F 21.2 °F 86% 30.40 in 10.0 mi East 3.5 mph - N/A   Clear
5:35 AM 24.8 °F 16.1 °F 19.4 °F 80% 30.40 in 10.0 mi East 8.1 mph - N/A   Clear
5:55 AM 23.0 °F 12.4 °F 19.4 °F 86% 30.39 in 10.0 mi East 10.4 mph - N/A   Clear
6:15 AM 23.0 °F 12.4 °F 21.2 °F 93% 30.39 in 10.0 mi East 10.4 mph - N/A   Clear
6:35 AM 23.0 °F 12.4 °F 19.4 °F 86% 30.39 in 10.0 mi East 10.4 mph - N/A   Clear
6:55 AM 23.0 °F 13.1 °F 19.4 °F 86% 30.40 in 10.0 mi East 9.2 mph - N/A   Clear
7:15 AM 23.0 °F 13.9 °F 19.4 °F 86% 30.40 in 10.0 mi East 8.1 mph - N/A   Clear
7:55 AM 24.8 °F 15.3 °F 21.2 °F 86% 30.39 in 10.0 mi East 9.2 mph - N/A   Clear
8:15 AM 24.8 °F 15.3 °F 21.2 °F 86% 30.39 in 10.0 mi East 9.2 mph - N/A   Clear
8:35 AM 26.6 °F 16.8 °F 21.2 °F 80% 30.38 in 10.0 mi East 10.4 mph - N/A   Clear
8:55 AM 28.4 °F 18.5 °F 21.2 °F 74% 30.37 in 10.0 mi East 11.5 mph - N/A   Clear
9:15 AM 28.4 °F 18.0 °F 23.0 °F 80% 30.36 in 10.0 mi ESE 12.7 mph - N/A   Clear
9:35 AM 28.4 °F 18.5 °F 23.0 °F 80% 30.34 in 10.0 mi East 11.5 mph - N/A   Clear
9:55 AM 30.2 °F 20.2 °F 23.0 °F 75% 30.34 in 10.0 mi East 12.7 mph - N/A   Clear
10:15 AM 30.2 °F 20.8 °F 23.0 °F 75% 30.33 in 10.0 mi East 11.5 mph - N/A   Clear
10:35 AM 30.2 °F 20.2 °F 23.0 °F 75% 30.31 in 10.0 mi East 12.7 mph - N/A   Clear
10:55 AM 30.2 °F 19.8 °F 23.0 °F 75% 30.29 in 10.0 mi East 13.8 mph - N/A   Clear
11:15 AM 30.2 °F 20.2 °F 23.0 °F 75% 30.28 in 10.0 mi East 12.7 mph - N/A   Clear
11:35 AM 32.0 °F 23.0 °F 23.0 °F 69% 30.26 in 10.0 mi East 11.5 mph - N/A   Clear
11:55 AM 32.0 °F 20.8 °F 24.8 °F 75% 30.24 in 10.0 mi East 17.3 mph - N/A   Clear
12:15 PM 32.0 °F 22.5 °F 26.6 °F 80% 30.22 in 10.0 mi East 12.7 mph - N/A   Clear
12:35 PM 32.0 °F 22.1 °F 26.6 °F 80% 30.20 in 10.0 mi East 13.8 mph - N/A   Clear
12:55 PM 33.8 °F 24.8 °F 26.6 °F 75% 30.17 in 10.0 mi East 12.7 mph - N/A   Clear
1:15 PM 33.8 °F 25.3 °F 26.6 °F 75% 30.15 in 10.0 mi East 11.5 mph - N/A   Clear
1:35 PM 33.8 °F 24.3 °F 28.4 °F 81% 30.14 in 10.0 mi East 13.8 mph - N/A   Clear
1:55 PM 35.6 °F 27.1 °F 28.4 °F 75% 30.13 in 10.0 mi East 12.7 mph - N/A   Clear
2:35 PM 35.6 °F 26.6 °F 28.4 °F 75% 30.13 in 10.0 mi East 13.8 mph - N/A   Mostly Cloudy
2:55 PM 35.6 °F 27.1 °F 28.4 °F 75% 30.12 in 10.0 mi East 12.7 mph - N/A   Mostly Cloudy
3:15 PM 35.6 °F 26.6 °F 28.4 °F 75% 30.11 in 10.0 mi East 13.8 mph - N/A   Overcast
3:35 PM 35.6 °F 25.9 °F 30.2 °F 81% 30.09 in 10.0 mi East 16.1 mph 20.7 mph N/A   Overcast
3:55 PM 35.6 °F 25.9 °F 30.2 °F 81% 30.07 in 10.0 mi East 16.1 mph - N/A   Overcast
4:15 PM 35.6 °F 25.9 °F 30.2 °F 81% 30.05 in 10.0 mi East 16.1 mph - N/A   Overcast
4:35 PM 35.6 °F 26.2 °F 30.2 °F 81% 30.04 in 10.0 mi East 15.0 mph - N/A   Overcast
4:55 PM 35.6 °F 25.5 °F 30.2 °F 81% 30.04 in 10.0 mi East 17.3 mph - N/A   Overcast
5:15 PM 35.6 °F 24.5 °F 30.2 °F 81% 30.03 in 4.0 mi ESE 20.7 mph 28.8 mph N/A   Overcast
5:35 PM 33.8 °F 23.2 °F 32.0 °F 93% 30.02 in 10.0 mi ESE 17.3 mph - N/A   Overcast
5:55 PM 33.8 °F 22.2 °F 32.0 °F 93% 30.00 in 7.0 mi ESE 20.7 mph 26.5 mph N/A   Overcast
6:15 PM 33.8 °F 22.5 °F 32.0 °F 93% 29.99 in 5.0 mi ESE 19.6 mph 25.3 mph N/A   Overcast
6:35 PM 33.8 °F 23.2 °F 32.0 °F 93% 29.99 in 7.0 mi ESE 17.3 mph 25.3 mph N/A   Overcast
6:55 PM 33.8 °F 24.3 °F 32.0 °F 93% 29.98 in 5.0 mi ESE 13.8 mph - N/A   Overcast
7:15 PM 33.8 °F 23.9 °F 32.0 °F 93% 29.97 in 4.0 mi ESE 15.0 mph - 0.01 in   Overcast
7:35 PM 33.8 °F 23.9 °F 32.0 °F 93% 29.96 in 3.0 mi ESE 15.0 mph 20.7 mph 0.02 in   Overcast
7:55 PM 33.8 °F 23.9 °F 32.0 °F 93% 29.94 in 4.0 mi ESE 15.0 mph - 0.02 in   Overcast
8:15 PM 33.8 °F 23.5 °F 32.0 °F 93% 29.92 in 4.0 mi East 16.1 mph - N/A   Overcast
8:35 PM 33.8 °F 23.2 °F 32.0 °F 93% 29.90 in 4.0 mi East 17.3 mph - 0.01 in   Overcast
8:55 PM 33.8 °F 23.9 °F 32.0 °F 93% 29.89 in 4.0 mi ESE 15.0 mph - 0.01 in   Overcast
9:15 PM 33.8 °F 25.3 °F 32.0 °F 93% 29.89 in 3.0 mi ESE 11.5 mph - N/A   Overcast
9:35 PM 33.8 °F 24.8 °F 32.0 °F 93% 29.89 in 4.0 mi ESE 12.7 mph - 0.02 in   Overcast
9:55 PM 33.8 °F 24.8 °F 32.0 °F 93% 29.89 in 4.0 mi ESE 12.7 mph - 0.04 in   Overcast
10:35 PM 35.6 °F 28.6 °F 33.8 °F 93% 29.87 in 4.0 mi ESE 9.2 mph - 0.05 in   Overcast
11:35 PM 33.8 °F 22.5 °F 32.0 °F 93% 29.75 in 2.5 mi East 19.6 mph - N/A   Overcast
11:55 PM 33.8 °F 22.8 °F 33.8 °F 100% 29.77 in 3.0 mi ESE 18.4 mph - N/A   Overcast